�������l�o���
Date,Time,MP-1(��Sv/h),MP-2(��Sv/h),MP-3(��Sv/h),MP-4(��Sv/h),MP-5(��Sv/h),MP-6(��Sv/h),MP-7(��Sv/h),MP-8(��Sv/h),����,����(m/s),���J
2015/02/10,00:00,1.888,3.445,3.610,3.358,3.545,1.098,1.808,2.105,���k��,6.0,��
2015/02/10,00:10,1.887,3.445,3.605,3.360,3.542,1.097,1.808,2.107,��,6.8,��
2015/02/10,00:20,1.887,3.445,3.608,3.353,3.538,1.097,1.812,2.107,��,7.1,��
2015/02/10,00:30,1.885,3.442,3.610,3.357,3.538,1.098,1.813,2.105,��,6.9,��
2015/02/10,00:40,1.887,3.443,3.608,3.355,3.542,1.097,1.812,2.105,��,6.9,��
2015/02/10,00:50,1.883,3.442,3.607,3.355,3.542,1.098,1.812,2.107,��,3.9,��
2015/02/10,01:00,1.888,3.440,3.610,3.353,3.540,1.098,1.810,2.107,��,2.2,��
2015/02/10,01:10,1.887,3.443,3.610,3.353,3.537,1.098,1.810,2.103,�k,0.7,��
2015/02/10,01:20,1.887,3.440,3.608,3.355,3.537,1.097,1.813,2.105,�k��,2.2,��
2015/02/10,01:30,1.888,3.440,3.608,3.355,3.538,1.098,1.813,2.105,���k��,2.0,��
2015/02/10,01:40,1.888,3.442,3.607,3.353,3.540,1.097,1.808,2.103,��,2.7,��
2015/02/10,01:50,1.890,3.440,3.610,3.355,3.543,1.093,1.812,2.105,���k��,2.2,��
2015/02/10,02:00,1.888,3.440,3.605,3.357,3.542,1.097,1.812,2.102,�k��,2.0,��
2015/02/10,02:10,1.888,3.445,3.605,3.353,3.538,1.097,1.812,2.102,���k��,1.9,��
2015/02/10,02:20,1.888,3.438,3.605,3.360,3.538,1.097,1.813,2.103,�k��,2.8,��
2015/02/10,02:30,1.888,3.442,3.605,3.357,3.542,1.100,1.813,2.102,��,1.6,��
2015/02/10,02:40,1.888,3.442,3.608,3.353,3.538,1.098,1.812,2.103,���k��,2.6,��
2015/02/10,02:50,1.887,3.442,3.612,3.353,3.538,1.098,1.812,2.105,���쐼,2.9,��
2015/02/10,03:00,1.888,3.443,3.610,3.353,3.538,1.098,1.813,2.107,���쐼,2.6,��
2015/02/10,03:10,1.888,3.442,3.610,3.355,3.542,1.097,1.813,2.103,�쐼,4.9,��
2015/02/10,03:20,1.888,3.443,3.608,3.358,3.540,1.097,1.813,2.103,���쐼,4.7,��
2015/02/10,03:30,1.885,3.440,3.608,3.355,3.540,1.097,1.817,2.103,���쐼,7.1,��
2015/02/10,03:40,1.890,3.442,3.610,3.353,3.542,1.100,1.817,2.102,��,7.1,��
2015/02/10,03:50,1.888,3.442,3.607,3.352,3.540,1.100,1.817,2.103,���쐼,8.5,��
2015/02/10,04:00,1.887,3.442,3.608,3.358,3.540,1.097,1.810,2.105,���쐼,8.2,��
2015/02/10,04:10,1.887,3.442,3.608,3.355,3.542,1.098,1.813,2.103,���쐼,9.1,��
2015/02/10,04:20,1.888,3.442,3.608,3.355,3.540,1.095,1.813,2.105,���쐼,9.1,��
2015/02/10,04:30,1.888,3.442,3.607,3.358,3.542,1.097,1.812,2.105,���쐼,9.9,��
2015/02/10,04:40,1.888,3.443,3.607,3.358,3.540,1.097,1.815,2.105,��,8.8,��
2015/02/10,04:50,1.887,3.442,3.605,3.357,3.542,1.100,1.817,2.103,��,9.3,��
2015/02/10,05:00,1.888,3.442,3.607,3.353,3.540,1.098,1.817,2.105,��,10.5,��
2015/02/10,05:10,1.888,3.442,3.608,3.350,3.535,1.098,1.815,2.103,���쐼,9.7,��
2015/02/10,05:20,1.888,3.438,3.610,3.353,3.538,1.097,1.815,2.107,���쐼,11.5,��
2015/02/10,05:30,1.888,3.438,3.607,3.355,3.537,1.100,1.817,2.108,���쐼,11.0,��
2015/02/10,05:40,1.890,3.443,3.607,3.353,3.538,1.098,1.817,2.107,���쐼,11.0,��
2015/02/10,05:50,1.892,3.447,3.610,3.353,3.542,1.097,1.817,2.102,��,11.6,��
2015/02/10,06:00,1.890,3.443,3.612,3.353,3.535,1.097,1.815,2.105,��,9.3,��
2015/02/10,06:10,1.887,3.443,3.607,3.355,3.532,1.093,1.812,2.103,��,10.2,��
2015/02/10,06:20,1.888,3.443,3.608,3.355,3.535,1.097,1.813,2.103,���쐼,8.5,��
2015/02/10,06:30,1.888,3.442,3.608,3.358,3.533,1.093,1.815,2.100,���쐼,7.5,��
2015/02/10,06:40,1.887,3.443,3.607,3.357,3.535,1.090,1.817,2.100,��,8.5,��
2015/02/10,06:50,1.888,3.443,3.605,3.358,3.533,1.088,1.813,2.102,��,8.0,��
2015/02/10,07:00,1.890,3.442,3.607,3.357,3.532,1.085,1.810,2.102,��,6.3,��
2015/02/10,07:10,1.892,3.440,3.610,3.352,3.530,1.080,1.815,2.102,���쐼,4.3,��
2015/02/10,07:20,1.887,3.438,3.608,3.355,3.528,1.078,1.813,2.098,���쐼,2.8,��
2015/02/10,07:30,1.888,3.442,3.608,3.350,3.530,1.073,1.812,2.103,��쐼,4.1,��
2015/02/10,07:40,1.888,3.442,3.603,3.355,3.532,1.073,1.813,2.102,��,2.9,��
2015/02/10,07:50,1.888,3.442,3.610,3.355,3.533,1.072,1.812,2.102,��쐼,4.0,��
2015/02/10,08:00,1.887,3.442,3.613,3.355,3.538,1.072,1.815,2.102,��,4.5,��
2015/02/10,08:10,1.888,3.443,3.615,3.353,3.538,1.075,1.817,2.100,��쐼,3.6,��
2015/02/10,08:20,1.890,3.447,3.615,3.357,3.538,1.075,1.815,2.102,��쐼,3.1,��
2015/02/10,08:30,1.888,3.442,3.613,3.357,3.540,1.073,1.815,2.100,��,3.0,��
2015/02/10,08:40,1.890,3.448,3.615,3.355,3.538,1.072,1.812,2.102,��,2.7,��
2015/02/10,08:50,1.888,3.447,3.612,3.357,3.542,1.072,1.815,2.105,��,3.1,��
2015/02/10,09:00,1.890,3.445,3.613,3.355,3.542,1.072,1.813,2.103,��,3.9,��
2015/02/10,09:10,1.887,-,3.617,3.360,3.537,1.075,1.817,2.103,��,3.6,��
2015/02/10,09:20,1.890,-,3.620,3.358,3.538,1.073,1.813,2.102,��,3.1,��
2015/02/10,09:30,1.892,-,3.615,3.358,3.545,1.072,1.813,2.103,��쐼,2.9,��
2015/02/10,09:40,1.893,-,3.617,3.360,3.548,1.073,1.812,2.107,�쐼,4.2,��
2015/02/10,09:50,1.892,-,3.617,3.360,3.548,1.073,1.815,2.105,���쐼,6.8,��
2015/02/10,10:00,1.892,-,3.620,3.358,3.550,1.073,1.813,2.103,���쐼,7.2,��
2015/02/10,10:10,1.892,-,3.618,3.360,3.550,1.075,1.817,2.107,���쐼,5.6,��
2015/02/10,10:20,1.893,-,3.618,3.360,3.550,1.077,1.815,2.105,�쐼,6.6,��
2015/02/10,10:30,1.893,-,3.620,3.368,3.555,1.075,1.815,2.103,���쐼,6.0,��
2015/02/10,10:40,1.893,-,3.622,3.365,3.557,1.075,1.818,2.107,�쐼,7.7,��
2015/02/10,10:50,1.893,-,3.622,3.365,3.558,1.075,1.818,2.108,�쐼,6.8,��
2015/02/10,11:00,1.895,-,3.620,3.367,3.557,1.075,1.817,2.103,�쐼,7.1,��
2015/02/10,11:10,1.892,-,3.625,3.368,3.560,1.075,1.818,2.107,�쐼,5.0,��
2015/02/10,11:20,1.895,-,3.627,3.367,3.562,1.078,1.818,2.103,���쐼,6.6,��
2015/02/10,11:30,1.895,-,3.630,3.367,3.563,1.078,1.820,2.107,���쐼,5.6,��
2015/02/10,11:40,1.893,-,3.625,3.372,3.560,1.082,1.820,2.105,���쐼,4.6,��
2015/02/10,11:50,1.893,-,3.632,3.372,3.563,1.080,1.820,2.107,�쐼,4.9,��
2015/02/10,12:00,1.895,-,3.632,3.368,3.567,1.082,1.818,2.103,���쐼,2.6,��
2015/02/10,12:10,1.897,-,3.630,3.370,3.565,1.080,1.823,2.107,���쐼,7.8,��
2015/02/10,12:20,1.895,-,3.632,3.367,3.568,1.078,1.820,2.105,��,8.6,��
2015/02/10,12:30,1.898,-,3.633,3.368,3.570,1.082,1.822,2.107,��,10.4,��
2015/02/10,12:40,1.898,-,3.637,3.373,3.570,1.080,1.823,2.105,��,11.5,��
2015/02/10,12:50,1.897,-,3.635,3.373,3.570,1.082,1.820,2.105,��,9.6,��
2015/02/10,13:00,1.898,-,3.633,3.372,3.577,1.085,1.820,2.108,��,8.9,��
2015/02/10,13:10,1.895,-,3.632,3.370,3.570,1.083,1.823,2.108,��,8.2,��
2015/02/10,13:20,1.897,-,3.635,3.373,3.570,1.083,1.822,2.108,��,8.5,��
2015/02/10,13:30,1.898,-,3.635,3.372,3.575,1.082,1.822,2.108,��,7.8,��
2015/02/10,13:40,1.898,-,3.640,3.373,3.575,1.085,1.823,2.108,���쐼,7.4,��
2015/02/10,13:50,1.895,-,3.640,3.373,3.577,1.083,1.820,2.105,��,8.5,��
2015/02/10,14:00,1.898,-,3.638,3.373,3.578,1.088,1.820,2.110,���쐼,7.4,��
2015/02/10,14:10,1.900,-,3.638,3.373,3.577,1.090,1.822,2.110,��,7.1,��
2015/02/10,14:20,1.897,-,3.637,3.372,3.582,1.092,1.822,2.108,��,6.1,��
2015/02/10,14:30,1.897,-,3.637,3.375,3.578,1.090,1.822,2.110,��,6.7,��
2015/02/10,14:40,1.897,-,3.637,3.373,3.578,1.090,1.822,2.110,���쐼,6.0,��
2015/02/10,14:50,1.897,-,3.638,3.375,3.580,1.093,1.822,2.112,���쐼,10.7,��
2015/02/10,15:00,1.897,-,3.643,3.373,3.582,1.092,1.820,2.110,���쐼,8.3,��
2015/02/10,15:10,1.898,-,3.643,3.375,3.578,1.092,1.820,2.108,���쐼,11.3,��
2015/02/10,15:20,1.898,-,3.643,3.375,3.577,1.095,1.818,2.107,���쐼,10.7,��
2015/02/10,15:30,1.895,-,3.642,3.377,3.578,1.097,1.820,2.108,���쐼,10.2,��
2015/02/10,15:40,1.897,-,3.643,3.375,3.580,1.098,1.818,2.108,���쐼,9.1,��
2015/02/10,15:50,1.897,-,3.645,3.373,3.580,1.098,1.822,2.108,���쐼,9.1,��
2015/02/10,16:00,1.898,-,3.645,3.377,3.578,1.098,1.822,2.107,���쐼,8.5,��
2015/02/10,16:10,1.897,-,3.647,3.375,3.582,1.100,1.822,2.107,���쐼,8.8,��
2015/02/10,16:20,1.895,-,3.645,3.382,3.578,1.102,1.822,2.110,���쐼,8.9,��
2015/02/10,16:30,1.897,-,3.645,3.382,3.580,1.100,1.820,2.110,�쐼,9.1,��
2015/02/10,16:40,1.897,-,3.643,3.377,3.578,1.098,1.822,2.110,���쐼,7.9,��
2015/02/10,16:50,1.897,3.470,3.645,3.378,3.572,1.100,1.818,2.110,���쐼,7.8,��
2015/02/10,17:00,1.897,3.478,3.643,3.378,3.572,1.100,1.822,2.108,���쐼,7.4,��
2015/02/10,17:10,1.897,3.482,3.642,3.378,3.577,1.098,1.820,2.108,���쐼,6.7,��
2015/02/10,17:20,1.897,3.478,3.643,3.377,3.575,1.102,1.823,2.110,���쐼,6.3,��
2015/02/10,17:30,1.893,3.482,3.643,3.378,3.577,1.100,1.822,2.108,���쐼,6.8,��
2015/02/10,17:40,1.897,3.480,3.642,3.375,3.578,1.100,1.820,2.105,���쐼,6.4,��
2015/02/10,17:50,1.895,3.478,3.642,3.378,3.575,1.098,1.818,2.108,���쐼,6.0,��
2015/02/10,18:00,1.897,3.480,3.640,3.377,3.573,1.100,1.818,2.107,���쐼,5.6,��
2015/02/10,18:10,1.895,3.480,3.642,3.372,3.577,1.103,1.820,2.108,���쐼,4.7,��
2015/02/10,18:20,1.892,3.480,3.642,3.375,3.575,1.102,1.818,2.110,���쐼,5.5,��
2015/02/10,18:30,1.895,3.477,3.637,3.372,3.575,1.100,1.818,2.110,�쐼,5.3,��
2015/02/10,18:40,1.897,3.475,3.637,3.377,3.573,1.100,1.818,2.110,�쐼,6.5,��
2015/02/10,18:50,1.898,3.475,3.640,3.373,3.578,1.102,1.818,2.112,�쐼,5.6,��
2015/02/10,19:00,1.897,3.472,3.640,3.375,3.577,1.103,1.822,2.108,�쐼,6.3,��
2015/02/10,19:10,1.895,3.475,3.638,3.372,3.575,1.102,1.818,2.108,�쐼,5.4,��
2015/02/10,19:20,1.895,3.475,3.635,3.373,3.573,1.102,1.818,2.108,�쐼,6.3,��
2015/02/10,19:30,1.895,3.475,3.635,3.378,3.577,1.105,1.818,2.110,�쐼,5.6,��
2015/02/10,19:40,1.895,3.473,3.638,3.375,3.575,1.105,1.817,2.108,�쐼,6.3,��
2015/02/10,19:50,1.893,3.473,3.638,3.373,3.578,1.103,1.820,2.108,�쐼,5.7,��
2015/02/10,20:00,1.895,3.475,3.637,3.373,3.573,1.102,1.818,2.107,�쐼,6.3,��
2015/02/10,20:10,1.895,3.477,3.643,3.375,3.570,1.100,1.820,2.108,���쐼,5.7,��
2015/02/10,20:20,1.893,3.478,3.642,3.377,3.575,1.103,1.822,2.103,���쐼,6.0,��
2015/02/10,20:30,1.897,3.478,3.643,3.378,3.573,1.102,1.818,2.107,���쐼,4.9,��
2015/02/10,20:40,1.895,3.472,3.640,3.378,3.577,1.100,1.818,2.108,���쐼,7.1,��
2015/02/10,20:50,1.897,3.470,3.642,3.378,3.580,1.103,1.822,2.105,��,7.4,��
2015/02/10,21:00,1.898,3.470,3.645,3.375,3.573,1.103,1.820,2.107,��,7.7,��
2015/02/10,21:10,1.895,3.473,3.643,3.372,3.575,1.103,1.820,2.107,��,7.4,��
2015/02/10,21:20,1.893,3.475,3.643,3.378,3.573,1.105,1.818,2.107,��,8.2,��
2015/02/10,21:30,1.895,3.475,3.645,3.378,3.572,1.105,1.817,2.107,��,6.7,��
2015/02/10,21:40,1.895,3.478,3.640,3.377,3.573,1.103,1.818,2.107,��,6.3,��
2015/02/10,21:50,1.900,3.475,3.643,3.378,3.575,1.105,1.820,2.108,��,8.0,��
2015/02/10,22:00,1.897,3.477,3.640,3.378,3.572,1.108,1.817,2.105,���쐼,8.0,��
2015/02/10,22:10,1.897,3.480,3.642,3.378,3.578,1.105,1.822,2.105,���쐼,9.9,��
2015/02/10,22:20,1.898,3.478,3.647,3.380,3.575,1.107,1.820,2.105,���쐼,9.3,��
2015/02/10,22:30,1.897,3.477,3.645,3.378,3.577,1.107,1.822,2.108,���쐼,9.1,��
2015/02/10,22:40,1.895,3.477,3.647,3.382,3.578,1.107,1.822,2.110,���쐼,7.1,��
2015/02/10,22:50,1.897,3.475,3.645,3.380,3.577,1.105,1.822,2.105,��,6.7,��
2015/02/10,23:00,1.897,3.477,3.647,3.383,3.575,1.103,1.822,2.107,���쐼,8.2,��
2015/02/10,23:10,1.897,3.477,3.643,3.378,3.578,1.105,1.823,2.103,���쐼,7.7,��
2015/02/10,23:20,1.898,3.477,3.643,3.378,3.577,1.105,1.818,2.107,���쐼,8.0,��
2015/02/10,23:30,1.898,3.475,3.645,3.382,3.580,1.107,1.820,2.108,��,9.7,��
2015/02/10,23:40,1.897,3.478,3.648,3.383,3.578,1.105,1.822,2.107,���쐼,9.7,��
2015/02/10,23:50,1.895,3.480,3.643,3.378,3.577,1.107,1.822,2.107,���쐼,11.6,��
